sat.trackr.live / text

‹ back to catalog

STARLINK-35092

NORAD 65342 · 2025-189V

PAYLOAD ACTIVE UNKNOWN

§ Identity

Operator
Country
US
Launch date
2025-08-27
Launch site
AFETR
Launch vehicle
Mass (kg)
RCS (m²)

Purposes: comms

External: N2YO · Heavens-Above · Gunter

§ Orbital elements

Epoch: 2026-09-20T14:24:48.893760Z

Period
94.01 min
Inclination
53.1607°
Eccentricity
0.0000902
Mean motion
15.31722349 rev/d
Perigee alt
470.1 km
Apogee alt
471.3 km
Semi-major
6,848.8 km
B*
6.1200e-4
RAAN
19.6198°
Arg perigee
71.5445°
Mean anomaly
288.5655°
Rev number
6,088

§ Raw data

STARLINK-350921 65342U 25189V   26263.60056590  .00018687  00000+0  61200-3 0  99962 65342  53.1607  19.6198 0000902  71.5445 288.5655 15.31722349 60883

JSON: /api/v1/satellites/65342 · /tle

For live sub-satellite position, see the globe view (requires WebGL).

§ Visibility from observer

Set your observer location to see the next 7 days of passes ≥ 10°. The values pass through the URL so the page stays shareable.

No JS? Fill the form by hand. The geolocation button needs JavaScript.